Tiempo cada hora Almak

Hoy, 2 Agosto, Lunes

Tiempo Temperatura Precipitaciones Viento Presión Humedad
00:00 +20°C° 0 mm 2 mps 676 mmHg 66%
01:00 +20°C° 0 mm 2 mps 676 mmHg 66%
02:00 +20°C° 0 mm 2 mps 676 mmHg 66%
03:00 +20°C° 0 mm 2 mps 676 mmHg 66%
04:00 +20°C° 0 mm 2 mps 676 mmHg 65%
05:00 +21°C° 0 mm 1 mps 676 mmHg 65%
06:00 +22°C° 0 mm 1 mps 677 mmHg 65%
07:00 +23°C° 0.1 mm 1 mps 677 mmHg 59%
08:00 +25°C° 0.1 mm 1 mps 677 mmHg 54%
09:00 +27°C° 0.1 mm 1 mps 678 mmHg 48%
10:00 +28°C° 0.1 mm 2 mps 678 mmHg 43%
11:00 +30°C° 0.1 mm 2 mps 678 mmHg 37%
12:00 +31°C° 0.1 mm 3 mps 678 mmHg 31%
13:00 +30°C° 0.2 mm 3 mps 678 mmHg 33%
14:00 +30°C° 0.2 mm 4 mps 677 mmHg 35%
15:00 +29°C° 0.2 mm 4 mps 677 mmHg 37%
16:00 +27°C° 0.1 mm 3 mps 677 mmHg 43%
17:00 +26°C° 0.1 mm 3 mps 677 mmHg 49%
18:00 +25°C° 0.1 mm 2 mps 677 mmHg 55%
19:00 +24°C° 0 mm 2 mps 677 mmHg 55%
20:00 +23°C° 0 mm 2 mps 677 mmHg 56%
21:00 +21°C° 0 mm 2 mps 677 mmHg 56%
22:00 +20°C° 0 mm 2 mps 677 mmHg 56%
23:00 +20°C° 0 mm 2 mps 676 mmHg 56%

Mañana, 3 Agosto, Martes

Tiempo Temperatura Precipitaciones Viento Presión Humedad
00:00 +19°C° 0 mm 2 mps 676 mmHg 56%
01:00 +19°C° 0 mm 2 mps 676 mmHg 57%
02:00 +19°C° 0 mm 2 mps 676 mmHg 57%
03:00 +19°C° 0 mm 2 mps 676 mmHg 57%
04:00 +19°C° 0 mm 2 mps 676 mmHg 57%
05:00 +20°C° 0 mm 2 mps 677 mmHg 57%
06:00 +20°C° 0 mm 2 mps 677 mmHg 56%
07:00 +24°C° 0 mm 2 mps 678 mmHg 49%
08:00 +26°C° 0 mm 1 mps 678 mmHg 41%
09:00 +29°C° 0 mm 1 mps 679 mmHg 33%
10:00 +30°C° 0 mm 2 mps 679 mmHg 30%
11:00 +31°C° 0 mm 2 mps 679 mmHg 26%
12:00 +32°C° 0 mm 2 mps 679 mmHg 22%
13:00 +32°C° 0 mm 2 mps 678 mmHg 21%
14:00 +33°C° 0 mm 3 mps 678 mmHg 21%
15:00 +34°C° 0 mm 3 mps 678 mmHg 20%
16:00 +31°C° 0 mm 3 mps 678 mmHg 25%
17:00 +30°C° 0 mm 2 mps 678 mmHg 31%
18:00 +28°C° 0 mm 2 mps 678 mmHg 36%
19:00 +26°C° 0 mm 2 mps 678 mmHg 40%
20:00 +24°C° 0 mm 2 mps 678 mmHg 44%
21:00 +22°C° 0 mm 3 mps 677 mmHg 47%
22:00 +22°C° 0 mm 3 mps 678 mmHg 47%
23:00 +23°C° 0 mm 2 mps 678 mmHg 46%

Pasado mañana, 4 Agosto, Miércoles

Tiempo Temperatura Precipitaciones Viento Presión Humedad
00:00 +21°C° 0 mm 2 mps 678 mmHg 46%
01:00 +21°C° 0 mm 2 mps 678 mmHg 48%
02:00 +21°C° 0 mm 2 mps 678 mmHg 49%
03:00 +21°C° 0 mm 2 mps 678 mmHg 51%
04:00 +23°C° 0 mm 2 mps 678 mmHg 52%
05:00 +23°C° 0 mm 2 mps 678 mmHg 53%
06:00 +23°C° 0 mm 2 mps 679 mmHg 53%
07:00 +26°C° 0 mm 2 mps 679 mmHg 48%
08:00 +28°C° 0 mm 2 mps 680 mmHg 42%
09:00 +30°C° 0 mm 2 mps 680 mmHg 36%
10:00 +31°C° 0 mm 2 mps 680 mmHg 34%
11:00 +32°C° 0 mm 2 mps 680 mmHg 32%
12:00 +34°C° 0 mm 2 mps 680 mmHg 29%
13:00 +34°C° 0 mm 2 mps 679 mmHg 30%
14:00 +34°C° 0 mm 2 mps 679 mmHg 31%
15:00 +34°C° 0 mm 2 mps 679 mmHg 32%
16:00 +32°C° 0 mm 2 mps 679 mmHg 34%
17:00 +31°C° 0 mm 2 mps 679 mmHg 37%
18:00 +31°C° 0 mm 2 mps 679 mmHg 40%
19:00 +29°C° 0 mm 2 mps 679 mmHg 41%
20:00 +28°C° 0 mm 2 mps 679 mmHg 41%
21:00 +26°C° 0 mm 2 mps 679 mmHg 42%
22:00 +26°C° 0 mm 2 mps 678 mmHg 43%
23:00 +25°C° 0 mm 2 mps 678 mmHg 44%

5 Agosto, Jueves

Tiempo Temperatura Precipitaciones Viento Presión Humedad
00:00 +25°C° 0 mm 2 mps 678 mmHg 45%
01:00 +24°C° 0 mm 2 mps 678 mmHg 46%
02:00 +24°C° 0 mm 2 mps 678 mmHg 48%
03:00 +24°C° 0 mm 2 mps 677 mmHg 49%
04:00 +23°C° 0.2 mm 2 mps 678 mmHg 54%
05:00 +23°C° 0.2 mm 2 mps 678 mmHg 59%
06:00 +23°C° 0.2 mm 2 mps 678 mmHg 63%
07:00 +25°C° 0.1 mm 2 mps 678 mmHg 55%
08:00 +27°C° 0.1 mm 2 mps 679 mmHg 47%
09:00 +30°C° 0.1 mm 1 mps 679 mmHg 39%
10:00 +31°C° 0 mm 2 mps 679 mmHg 37%
11:00 +32°C° 0 mm 2 mps 679 mmHg 35%
12:00 +34°C° 0 mm 3 mps 679 mmHg 32%
13:00 +32°C° 0.1 mm 2 mps 679 mmHg 36%
14:00 +31°C° 0.1 mm 2 mps 678 mmHg 40%
15:00 +30°C° 0.1 mm 2 mps 678 mmHg 43%
16:00 +30°C° 0.1 mm 2 mps 678 mmHg 45%
17:00 +29°C° 0.1 mm 2 mps 678 mmHg 47%
18:00 +29°C° 0.1 mm 2 mps 678 mmHg 49%
19:00 +27°C° 0.1 mm 2 mps 678 mmHg 53%
20:00 +25°C° 0.1 mm 2 mps 678 mmHg 57%
21:00 +24°C° 0.1 mm 2 mps 677 mmHg 61%
22:00 +23°C° 0 mm 2 mps 677 mmHg 61%
23:00 +23°C° 0 mm 2 mps 677 mmHg 61%

6 Agosto, Viernes

Tiempo Temperatura Precipitaciones Viento Presión Humedad
00:00 +23°C° 0 mm 2 mps 677 mmHg 61%
01:00 +23°C° 0 mm 2 mps 676 mmHg 62%
02:00 +21°C° 0 mm 2 mps 676 mmHg 63%
03:00 +21°C° 0 mm 2 mps 676 mmHg 63%
04:00 +21°C° 0 mm 2 mps 676 mmHg 63%
05:00 +23°C° 0 mm 2 mps 676 mmHg 62%
06:00 +23°C° 0 mm 2 mps 676 mmHg 61%
07:00 +25°C° 0 mm 2 mps 676 mmHg 54%
08:00 +27°C° 0 mm 2 mps 677 mmHg 46%
09:00 +29°C° 0 mm 2 mps 677 mmHg 39%
10:00 +30°C° 0 mm 3 mps 677 mmHg 36%
11:00 +33°C° 0 mm 3 mps 677 mmHg 33%
12:00 +34°C° 0 mm 4 mps 677 mmHg 30%
13:00 +34°C° 0 mm 4 mps 677 mmHg 30%
14:00 +33°C° 0 mm 5 mps 676 mmHg 30%
15:00 +33°C° 0 mm 5 mps 676 mmHg 29%
16:00 +30°C° 0.1 mm 4 mps 676 mmHg 36%
17:00 +28°C° 0.1 mm 4 mps 675 mmHg 43%
18:00 +26°C° 0.1 mm 3 mps 675 mmHg 50%
19:00 +25°C° 0.4 mm 3 mps 675 mmHg 56%
20:00 +24°C° 0.4 mm 3 mps 675 mmHg 62%
21:00 +21°C° 0.4 mm 2 mps 675 mmHg 68%
22:00 +21°C° 0 mm 2 mps 675 mmHg 69%
23:00 +21°C° 0 mm 2 mps 675 mmHg 69%

7 Agosto, Sábado

Tiempo Temperatura Precipitaciones Viento Presión Humedad
00:00 +22°C° 0 mm 1 mps 675 mmHg 69%
01:00 +21°C° 0.1 mm 1 mps 675 mmHg 71%
02:00 +21°C° 0.1 mm 1 mps 674 mmHg 72%
03:00 +20°C° 0.1 mm 1 mps 674 mmHg 74%
04:00 +21°C° 0 mm 1 mps 674 mmHg 71%
05:00 +21°C° 0 mm 1 mps 675 mmHg 69%
06:00 +22°C° 0 mm 1 mps 675 mmHg 66%
07:00 +23°C° 0 mm 1 mps 675 mmHg 60%
08:00 +25°C° 0 mm 1 mps 676 mmHg 54%
09:00 +27°C° 0 mm 2 mps 676 mmHg 47%
10:00 +28°C° 0 mm 2 mps 676 mmHg 44%
11:00 +29°C° 0 mm 3 mps 676 mmHg 41%
12:00 +30°C° 0 mm 3 mps 676 mmHg 37%
13:00 +30°C° 0.1 mm 3 mps 676 mmHg 38%
14:00 +30°C° 0.1 mm 3 mps 676 mmHg 40%
15:00 +30°C° 0.1 mm 3 mps 676 mmHg 41%
16:00 +28°C° 0.5 mm 3 mps 676 mmHg 49%
17:00 +26°C° 0.5 mm 3 mps 676 mmHg 58%
18:00 +24°C° 0.5 mm 2 mps 675 mmHg 66%
19:00 +23°C° 0.6 mm 1 mps 676 mmHg 72%
20:00 +22°C° 0.6 mm 1 mps 676 mmHg 77%
21:00 +19°C° 0.6 mm 0 mps 676 mmHg 82%
22:00 +19°C° 0.5 mm 0 mps 676 mmHg 83%
23:00 +19°C° 0.5 mm 0 mps 676 mmHg 84%
Mostrar más

Necesitamos Su Consentimiento

Meteoprog y nuestros Proveedores de Servicios pueden almacenar y acceder a sus datos personales como cookies, identificadores de dispositivo u otras tecnologías similares de su dispositivo y procesar dichos datos para personalizar contenido y anuncios, además de ofrecer funciones de redes sociales y analizar el tráfico.

  • Almacenar y/o acceder a información en su dispositivo

    Se puede almacenar o acceder a cookies, identificadores de dispositivo u otra información de su dispositivo para los fines anteriormente indicados.

  • Anuncios y contenido personalizados, medición de anuncios y contenido, percepciones del público, y desarrollo de productos

    Los anuncios y el contenido pueden personalizarse en base a su perfil. Se pueden añadir más datos para personalizar mejor los anuncios y contenidos. Se puede medir el rendimiento de los anuncios y contenidos. Se puede obtener la percepción sobre el público que ha visto los anuncios y contenidos. Dichos datos pueden usarse para desarrollar o mejorar la experiencia del usuario, sistemas y software.

Al hacer clic en ‘Estoy De Acuerdo’ usted permitirá el uso de las cookies, identificadores de dispositivo, balizas web u otras tecnologías similares indicadas. Su configuración puede cambiarse desde el navegador de su dispositivo.

Para ciertos fines, los intereses legítimos pueden ser considerados por encima del consentimiento. Puede leer más sobre ello en nuestra Política de Privacidad y Cookies.